Regional Weather Roundup
Issued by NWS Lake Charles, LA

Home | Current Version | Previous Version | Text Only | Print | Product List | Glossary On
Versions: 1 2 3 4 5 6 7 8 9 10 11 12 13 14 15 16 17 18 19 20 21 22 23 24 25 26 27 28 29 30 31 32 33 34 35 36 37 38 39 40 41 42 43 44 45 46 47 48 49 50
000
ASUS44 KLCH 211310
RWRLCH
REGIONAL WEATHER ROUNDUP
NATIONAL WEATHER SERVICE LAKE CHARLES LA
800 AM CDT THU SEP 21 2017

Note: "fair" indicates few or no clouds below 12,000 feet with no
significant weather and/or obstructions to visibility.


ACROSS SOUTHEAST TEXAS

CITY           SKY/WX    TMP DP  RH WIND       PRES   REMARKS
BEAUMONT       SUNNY     78  75  90 CALM      29.98R
BEAUMONT CITY  FAIR      79  76  90 E3        29.99R
ORANGE         SUNNY     76  76 100 CALM      30.00S
JASPER           N/A     75  75  99 CALM      30.03R FOG
$$

ACROSS CENTRAL LOUISIANA

CITY           SKY/WX    TMP DP  RH WIND       PRES   REMARKS
LEESVILLE      CLOUDY    73  73 100 CALM      30.01S FOG
FULLERTON      FOG       74  74 100 CALM      29.99R VSB 1/4
ALEXANDRIA INT SUNNY     74  73  97 E3        30.01R FOG
ESLER FIELD    SUNNY     72  72 100 CALM      30.03R
DERIDDER       PTSUNNY   74  73  96 E3        30.03R FOG
OAKDALE        FOG       72  71  96 CALM      30.02R VSB 1/4
OPELOUSAS      FAIR      72  72  99 CALM      30.03R
$$

ACROSS SOUTHWEST AND SOUTH CENTRAL LOUISIANA

CITY           SKY/WX    TMP DP  RH WIND       PRES   REMARKS
SULPHUR        SUNNY     78  77  96 E3        30.01R
LAKE CHARLES   SUNNY     77  75  93 CALM      29.99R
CHENNAULT INT  SUNNY     75  73  94 CALM      30.01R
CAMERON PHI    NOT AVBL
DEQUINCY       FAIR      73  73  98 CALM      30.01R FOG
JENNINGS       FAIR      74  73  96 E3        30.01S
LAFAYETTE      SUNNY     74  72  93 CALM      30.03R
NEW IBERIA     SUNNY     75  71  87 NE6       30.03R
ABBEVILLE      NOT AVBL
PATTERSON      NOT AVBL
SALT POINT       N/A     77  75  93 CALM      30.01R
$$

SELECTED SITES ACROSS THE REGION

CITY           SKY/WX    TMP DP  RH WIND       PRES   REMARKS
HOUSTON BUSH   MOSUNNY   78  77  96 SE5       29.97R
HOUSTON HOBBY  MOSUNNY   81  77  88 E5        29.96R
GALVESTON      MOSUNNY   84  78  82 S13       29.97R
COLLEGE STAT   MOCLDY    78  77  96 SE5       29.97R FOG
CONROE         FOG       76  75  97 E5        29.98R VSB 1/2
HUNTSVILLE     PTCLDY    79  75  87 S5        29.98R
LUFKIN         PTSUNNY   76  76 100 E5        30.00R
SHREVEPORT     SUNNY     76  76 100 CALM      30.01R FOG
MONROE         SUNNY     74  73  97 CALM      30.05R
NATCHEZ MS     SUNNY     74  71  91 E3        30.06R
BATON ROUGE    SUNNY     72  70  93 E5        30.03R
N.O. INTL ARPT MOSUNNY   77  76  96 CALM      30.03R
SLIDELL        MOSUNNY   74  72  93 N3        30.03R FOG
$$

MARINE REPORTS

STATION/POSITION TIME  SKY/WX   TEMP    WIND        PRES    VSBY
                                AIR SEA DIR/SP/G
                 (UTC)          (F)     (DEG/KT/KT) (MB)    (MI)
BUOY 30 S HIGH I NOT AVBL
SEA RIM ST PARK  1200            82     160/  8/ 10 1015.3R
PORT ARTHUR      1248            81 82  140/  5/  7 1015.6R
SABINE PASS N    1236            82 84  160/  8/ 10 1016.6R
TEXAS POINT      NOT AVBL
CALCASIEU PASS   1248               84  200/  9/ 11 1014.7R
LK CHARLES BEACH 1248            78 81              1015.4R
MARSH ISLAND     1200            82                   N/A
FRESH WATER LOCK 1236            80 85  140/  3/  4 1016.1R
AMERADA PASS     1236            77 83   80/  2/  4 1016.5R
$$



USA.gov is the U.S. government's official web portal to all federal, state and local government web resources and services.